Voltar ao catálogo

COSMOS 2520

AtivoNavegaçãoGEO
NORAD 42907·PAYLOAD·🇷🇺 Russia

Lançado Aug 16, 2017 de Baikonur Cosmodrome

Loading…

TLE

AtualizadoSource: Space-Track

Época: Sep 14, 2026, 23:06 UTC

1 42907U 17046A   26257.96316590  .00000130  00000-0  00000-0 0  9995
2 42907   0.0241 123.4906 0000333 116.6733 145.5188  1.00270091 33291

Acompanhe COSMOS 2520 em tempo real com AllMySat

Download on the App Store